DW5766 Weather Reports


Display with metric or nautical units.
time (UTC)temp
F
wind
direction
speed
MPH
gust
MPH
rain 1hr
in
rain 24hr
in
rain mn
in
humidity
%
barometer
mb
20260506131528 59 144 5.0 14.0 0.00 0.00 0.00 86 1010.8
20260506130018 59 183 6.0 15.0 0.00 0.00 0.00 86 1010.8
20260506124517 60 131 5.0 13.0 0.00 0.00 0.00 85 1010.8
20260506123015 61 266 4.0 11.0 0.00 0.00 0.00 84 1010.8
20260506121513 60 178 3.0 13.0 0.00 0.00 0.00 87 1011.0
20260506120017 59 207 4.0 14.0 0.00 0.00 0.00 86 1011.1
20260506114508 59 208 5.0 17.0 0.00 0.00 0.00 87 1011.1
20260506113007 58 171 4.0 13.0 0.00 0.00 0.00 88 1011.0
20260506111504 57 221 3.0 10.0 0.00 0.00 0.00 90 1011.0
20260506110004 56 217 2.0 8.0 0.00 0.00 0.00 92 1011.1
20260506104504 56 245 2.0 9.0 0.00 0.00 0.00 92 1010.9
20260506103002 55 150 2.0 12.0 0.00 0.00 0.00 92 1010.9
20260506101620 55 138 4.0 12.0 0.00 0.00 0.00 92 1010.9
20260506100119 55 247 4.0 10.0 0.00 0.00 0.00 93 1010.9
20260506094557 55 257 2.0 11.0 0.00 0.00 0.00 92 1010.8
20260506093055 55 178 4.0 8.0 0.00 0.00 0.00 92 1010.8
20260506091554 55 247 4.0 12.0 0.00 0.00 0.00 92 1010.8
20260506090051 55 248 2.0 11.0 0.00 0.00 0.00 92 1011.0
20260506084616 55 239 3.0 11.0 0.00 0.00 0.00 91 1011.1
20260506083048 55 120 4.0 11.0 0.00 0.00 0.00 91 1011.2
20260506081552 55 264 3.0 11.0 0.00 0.00 0.00 91 1011.2
20260506073045 55 236 4.0 10.0 0.00 0.00 0.00 90 1011.4
20260506071538 56 194 6.0 14.0 0.00 0.00 0.00 90 1011.5
20260506061531 56 190 4.0 13.0 0.00 0.00 0.00 89 1011.3
20260506044548 57 242 5.0 16.0 0.00 0.00 0.00 86 1011.7
20260506043016 57 219 4.0 13.0 0.00 0.00 0.00 86 1011.8
20260506041513 58 210 4.0 13.0 0.00 0.00 0.00 85 1011.8
20260506040009 58 250 5.0 18.0 0.00 0.00 0.00 84 1011.8
20260506034523 58 259 6.0 15.0 0.00 0.00 0.00 83 1011.8
20260506033009 59 211 7.0 13.0 0.00 0.00 0.00 83 1011.7
20260506031508 59 233 6.0 15.0 0.00 0.00 0.00 83 1011.7
20260506030006 59 226 4.0 12.0 0.00 0.00 0.00 83 1011.7
20260506024507 59 194 8.0 19.0 0.00 0.00 0.00 83 1011.7
20260506023005 59 253 5.0 18.0 0.00 0.00 0.00 83 1011.8
20260506021504 59 211 5.0 14.0 0.00 0.00 0.00 82 1011.8
20260506020004 59 231 6.0 18.0 0.00 0.00 0.00 81 1011.7
20260506014503 60 233 6.0 13.0 0.00 0.00 0.00 80 1011.6
20260506013003 60 161 10.0 21.0 0.00 0.00 0.00 79 1011.4
20260506011501 60 250 7.0 18.0 0.00 0.00 0.00 78 1011.2
20260506010004 60 246 6.0 17.0 0.00 0.00 0.00 78 1011.0
20260506004631 61 29 8.0 16.0 0.00 0.00 0.00 77 1010.9
20260506003113 62 242 6.0 17.0 0.00 0.00 0.00 75 1010.8
20260506001559 61 257 9.0 26.0 0.00 0.00 0.00 75 1010.6
20260506000058 62 136 6.0 20.0 0.00 0.00 0.00 75 1010.3
20260505234635 62 254 5.0 20.0 0.00 0.00 0.00 75 1010.2
20260505233105 62 124 7.0 21.0 0.00 0.00 0.00 75 1009.8
20260505231559 62 113 8.0 18.0 0.00 0.00 0.00 75 1009.6
20260505230054 62 245 7.0 17.0 0.00 0.00 0.00 74 1009.5
20260505224553 62 228 9.0 18.0 0.00 0.00 0.00 74 1009.5
20260505223052 62 134 10.0 24.0 0.00 0.00 0.00 73 1009.3
20260505221551 63 185 8.0 30.0 0.00 0.00 0.00 72 1009.5
20260505214556 64 238 9.0 36.0 0.00 0.00 0.00 71 1009.3
20260505213052 65 130 6.0 16.0 0.00 0.00 0.00 71 1008.9
20260505211552 65 120 8.0 23.0 0.00 0.00 0.00 71 1008.8
20260505210046 65 208 8.0 17.0 0.00 0.00 0.00 70 1008.9
20260505204547 65 241 8.0 18.0 0.00 0.00 0.00 70 1008.9
20260505203043 66 243 6.0 17.0 0.00 0.00 0.00 69 1009.0
20260505201542 66 239 3.0 17.0 0.00 0.00 0.00 70 1009.1
20260505200041 67 316 5.0 11.0 0.00 0.00 0.00 69 1009.3
20260505194542 66 186 5.0 18.0 0.00 0.00 0.00 70 1009.6
20260505193043 66 174 9.0 16.0 0.00 0.00 0.00 69 1009.8
20260505191549 66 178 7.0 18.0 0.00 0.00 0.00 70 1010.0
20260505190033 66 195 6.0 16.0 0.00 0.00 0.00 71 1010.3
20260505184532 66 198 6.0 16.0 0.00 0.00 0.00 71 1010.5
20260505183030 66 176 6.0 15.0 0.00 0.00 0.00 71 1010.7
20260505181529 66 198 7.0 17.0 0.00 0.00 0.00 72 1010.8
20260505180042 65 94 6.0 17.0 0.00 0.00 0.00 72 1010.9
20260505174536 66 88 5.0 16.0 0.00 0.00 0.00 73 1010.9
20260505173026 66 200 6.0 15.0 0.00 0.00 0.00 72 1011.0
20260505171531 66 178 4.0 12.0 0.00 0.00 0.00 73 1011.1
20260505170031 66 164 6.0 13.0 0.00 0.00 0.00 71 1011.2
20260505164523 67 230 4.0 11.0 0.00 0.00 0.00 70 1011.3
20260505163022 68 235 4.0 10.0 0.00 0.00 0.00 71 1011.4
20260505161521 68 167 3.0 9.0 0.00 0.00 0.00 70 1011.6
20260505153022 67 130 3.0 8.0 0.00 0.00 0.00 70 1011.7
20260505151513 67 164 3.0 8.0 0.00 0.00 0.00 71 1012.0